Wind_Speed
30 31 31 32 32 33 33 33 34 33 33 33 33 31 29 29 30 32 34 33 34 34 32 31 30 28 26 25 23 22 20 19 19 18 18 17 17 18 18 19 19 18 17
30 30 28 28 28 28 27 27 28 29 30 30 29 28 28 27 24 24 27 30 33 35 35 35 32 32 31 29 27 26 25 23 22 22 21 21 20 20 20 20 20 20 20
29 28 26 26 25 25 25 26 27 27 28 29 29 29 29 28 27 27 27 27 28 31 34 35 35 32 33 31 30 29 28 27 27 25 25 24 24 24 24 23 22 22 22
28 26 25 24 24 24 24 25 26 25 26 28 29 29 30 29 29 28 28 28 27 27 28 31 32 31 31 31 32 31 30 30 30 29 29 28 27 27 27 27 26 24 23
26 24 24 23 22 22 21 21 22 22 24 26 27 28 29 30 29 28 28 28 29 28 29 29 29 30 29 30 30 31 32 32 32 32 31 31 30 30 30 30 30 29 27
24 23 23 20 19 18 18 18 19 20 22 24 26 27 29 30 30 29 29 28 28 29 29 30 30 30 30 29 29 30 32 32 33 34 34 34 33 33 32 33 33 33 31
23 21 20 18 17 16 17 17 18 19 21 23 24 26 27 29 30 31 30 29 29 28 29 29 29 29 30 31 31 32 33 33 34 35 36 36 36 35 34 34 35 36 35
21 19 17 17 17 17 18 19 19 20 21 23 24 25 26 28 29 30 31 30 29 29 28 29 28 29 30 32 32 33 33 34 34 35 36 37 38 37 36 35 35 36 37
20 19 19 19 20 20 20 21 20 20 21 23 25 26 26 26 28 29 30 31 30 30 29 29 28 28 28 30 31 31 32 33 34 35 36 36 37 37 37 36 36 36 37
23 22 22 23 23 23 23 22 21 21 21 22 24 26 27 27 27 26 28 30 30 30 30 30 29 28 27 28 29 30 30 31 33 34 35 35 36 36 36 36 36 36 37
26 26 27 27 27 26 25 24 23 22 22 23 24 26 26 27 27 26 25 28 30 30 30 30 30 30 28 27 28 28 29 29 31 32 34 35 35 35 35 35 35 35 36
30 30 30 31 30 29 27 26 25 25 25 25 26 26 26 26 26 26 24 25 28 30 30 30 31 30 29 28 26 26 27 27 28 30 32 34 35 35 35 35 35 35 35
33 33 33 33 33 31 29 28 27 27 27 27 27 27 26 26 25 25 24 24 26 28 30 30 30 30 28 27 26 26 26 26 26 28 29 31 33 34 34 34 34 35 35
36 36 35 35 34 33 32 31 30 30 29 29 28 27 26 26 25 24 24 24 24 26 28 28 29 29 28 27 27 26 25 25 26 27 28 29 30 31 31 31 31 32 33
39 40 39 37 36 36 35 34 33 31 31 30 29 28 26 25 24 24 23 23 23 23 26 27 27 28 29 28 28 27 26 26 27 28 28 28 29 29 29 29 28 29 30
44 44 43 41 40 39 38 37 35 33 32 32 31 29 27 25 24 23 22 22 22 22 24 25 26 28 29 29 29 28 27 27 28 28 28 28 28 28 27 27 27 27 26
51 49 47 45 44 42 41 40 38 36 34 33 31 29 27 25 24 23 22 21 21 20 21 23 25 27 28 29 29 28 28 29 28 28 27 26 26 26 25 25 25 24 24
58 55 52 50 47 45 44 43 41 39 36 34 32 30 28 26 24 23 21 20 20 20 20 21 24 26 27 28 28 29 29 28 28 27 26 25 24 23 23 23 22 22 22
64 62 59 56 52 49 47 46 44 42 39 37 35 32 30 28 25 23 21 20 19 19 19 20 23 25 26 26 27 27 26 26 25 25 25 24 22 21 21 20 21 21 22
67 65 64 61 57 54 52 49 47 45 42 40 37 35 32 29 26 23 21 20 19 19 19 19 21 23 24 24 25 26 25 24 24 23 24 23 22 22 21 20 20 20 20
73 71 68 65 63 60 57 54 51 48 45 42 40 37 34 30 27 24 21 19 18 18 18 19 20 22 23 24 24 25 25 26 24 23 22 22 20 19 19 19 18 18 18
80 78 75 72 69 65 62 59 55 52 49 45 42 39 35 31 27 24 21 20 19 18 19 18 19 20 22 23 23 23 24 25 24 22 20 19 18 17 16 16 15 14 13
73 77 79 78 75 71 66 62 57 55 52 48 44 41 36 32 28 25 22 21 20 18 18 18 19 21 22 24 24 24 24 24 23 20 18 17 17 16 14 13 13 12 11
54 62 69 74 76 75 70 65 60 57 52 49 46 43 38 33 29 26 24 22 21 19 18 18 19 21 22 22 22 23 23 23 22 20 18 16 15 14 13 12 12 11 11
40 45 51 59 65 69 71 68 62 57 51 49 46 43 39 34 30 27 25 23 22 21 20 19 20 20 21 23 23 23 23 22 20 18 17 15 14 13 12 12 11 10 10
37 36 39 44 51 56 61 64 63 56 51 49 44 41 38 34 31 29 27 25 23 22 20 19 19 20 21 22 22 21 21 20 18 16 15 14 13 13 11 11 10 9 8
Wind_Direction
289 284 281 280 278 277 277 278 278 280 281 281 281 284 285 284 280 273 267 262 262 264 264 263 262 261 259 258 257 257 257 258 258 259 260 258 258 261 262 264 263 262 260
291 289 286 284 283 284 284 286 284 284 285 286 286 286 289 289 287 281 275 270 265 263 262 260 261 262 260 257 254 255 255 256 257 257 257 257 257 260 262 263 264 262 260
292 289 285 284 284 284 284 285 286 287 287 289 289 287 286 286 282 283 279 279 275 270 266 261 259 262 259 258 254 253 253 254 255 257 257 257 257 258 260 261 262 262 261
290 286 283 281 281 281 282 284 286 288 290 291 290 288 286 285 285 282 279 276 275 273 269 264 259 260 258 257 255 253 252 253 254 256 257 258 258 257 258 259 259 260 260
285 281 278 278 278 279 282 287 291 294 296 295 294 292 289 287 284 281 278 275 273 271 269 265 261 260 259 257 256 252 253 253 253 255 256 258 258 257 258 257 258 258 258
280 274 272 273 275 279 283 288 294 298 300 300 299 297 293 289 284 281 277 274 272 269 266 265 264 261 260 257 255 254 255 255 255 255 256 257 257 258 258 257 256 256 255
275 269 268 269 273 279 284 290 296 301 304 306 305 302 298 292 286 280 275 272 270 269 268 266 263 260 258 256 256 255 256 257 257 256 256 257 258 259 259 258 257 255 254
269 265 264 267 273 278 283 288 295 302 306 309 311 310 305 297 290 282 275 270 267 266 266 266 263 259 257 256 255 257 257 257 257 256 257 257 258 259 260 260 259 256 254
261 259 262 269 274 276 280 285 292 299 305 309 314 315 313 304 294 287 278 271 265 262 262 264 263 261 259 257 257 257 259 258 257 257 257 257 258 259 261 262 261 259 255
256 259 264 270 274 276 278 281 286 293 301 306 312 315 315 311 302 291 282 274 266 261 259 260 262 261 259 257 259 258 260 260 259 258 258 258 259 260 261 263 263 261 257
257 261 267 272 275 277 278 280 283 288 296 303 309 313 314 313 308 298 285 275 267 261 257 257 260 262 261 259 260 261 261 261 260 260 260 260 259 260 261 262 263 261 258
259 262 269 274 276 277 278 280 282 287 292 298 305 309 312 312 309 304 293 279 269 262 256 254 257 260 262 262 262 261 261 262 262 262 261 260 260 261 262 262 262 261 260
265 264 267 272 275 276 276 279 282 284 288 294 300 305 309 310 310 307 300 286 273 264 258 254 255 257 259 261 262 262 262 263 264 264 264 263 261 262 263 262 262 260 260
270 270 270 272 273 273 274 276 279 282 284 288 294 300 305 308 310 308 303 293 279 268 260 255 255 256 257 258 260 261 263 264 267 268 268 266 263 263 262 263 262 260 259
269 271 271 272 272 272 272 274 277 279 280 283 287 294 300 304 307 307 305 299 286 273 263 256 254 254 255 257 258 261 263 266 269 270 270 267 264 263 262 262 262 261 260
266 266 268 268 269 270 271 272 273 275 276 278 282 287 294 299 303 305 305 301 291 277 265 258 253 253 254 255 258 260 263 266 269 269 268 267 264 262 261 262 265 262 262
266 264 263 264 265 267 267 269 269 270 271 273 276 281 287 294 299 302 304 302 294 281 269 260 253 252 253 254 257 260 263 266 268 268 267 264 262 260 260 259 261 261 262
265 264 262 261 261 263 264 265 264 265 266 267 270 275 281 288 294 299 301 301 295 284 273 262 255 252 253 255 258 260 263 265 266 266 264 263 260 259 258 259 260 259 261
265 264 262 261 260 259 260 261 261 260 260 262 264 269 275 282 287 294 298 299 294 285 275 266 258 254 253 255 258 260 262 263 264 264 261 260 257 257 259 259 257 259 259
263 262 261 260 259 257 257 259 259 258 257 258 260 264 269 275 280 287 292 295 292 284 276 267 261 256 255 256 258 259 261 260 261 263 260 260 261 259 258 256 257 258 258
261 261 260 259 258 258 256 257 257 257 257 256 256 259 263 268 274 280 286 290 289 283 275 268 261 256 256 258 259 258 258 257 260 261 260 258 260 257 256 255 255 255 256
260 259 259 258 257 257 257 256 255 257 256 254 253 254 257 262 268 273 280 284 286 282 274 268 263 259 258 258 257 255 253 252 255 256 257 257 256 253 249 247 248 247 246
259 258 257 256 256 256 256 256 255 255 253 250 249 249 251 256 262 269 276 281 282 282 276 269 263 257 257 255 250 248 249 253 253 253 251 249 246 242 239 239 237 238 242
264 259 256 254 254 253 253 253 254 253 250 247 245 244 246 251 257 264 271 276 279 280 276 269 264 258 256 253 251 251 250 252 251 248 244 238 233 228 227 231 234 236 239
272 265 259 255 252 250 249 249 248 247 244 243 240 238 242 247 252 260 267 272 275 275 271 265 261 258 254 253 254 253 248 245 240 236 228 219 216 220 224 226 226 230 235
272 270 264 258 252 249 245 243 242 240 237 236 233 234 238 243 250 258 263 267 269 270 267 263 259 257 253 251 251 248 243 238 228 222 215 211 213 217 219 220 222 227 234
Height
5867 5866 5865 5864 5864 5863 5863 5862 5861 5860 5860 5859 5859 5858 5858 5857 5858 5858 5859 5861 5861 5863 5864 5866 5868 5869 5871 5872 5873 5875 5876 5877 5878 5879 5880 5881 5882 5883 5884 5885 5886 5887 5888
5859 5858 5858 5857 5856 5856 5855 5855 5854 5853 5853 5852 5852 5851 5851 5851 5851 5851 5852 5853 5854 5855 5857 5858 5860 5862 5864 5865 5867 5869 5870 5872 5873 5874 5875 5877 5878 5879 5880 5881 5882 5883 5885
5853 5852 5851 5851 5850 5850 5849 5849 5848 5847 5846 5845 5845 5844 5844 5844 5844 5845 5845 5846 5847 5847 5849 5850 5852 5854 5856 5858 5860 5862 5864 5866 5867 5869 5870 5872 5873 5874 5876 5877 5878 5879 5881
5847 5846 5845 5845 5845 5844 5844 5843 5842 5841 5840 5839 5838 5838 5837 5837 5838 5838 5838 5839 5840 5840 5841 5842 5844 5846 5848 5850 5852 5854 5857 5859 5861 5862 5864 5866 5868 5869 5871 5872 5874 5875 5876
5841 5840 5840 5840 5840 5839 5838 5837 5836 5836 5834 5833 5832 5831 5831 5830 5831 5831 5832 5832 5832 5833 5834 5835 5837 5839 5840 5842 5844 5847 5849 5851 5854 5856 5857 5859 5861 5863 5865 5867 5868 5870 5872
5835 5835 5835 5835 5835 5834 5833 5832 5831 5830 5829 5827 5825 5824 5823 5823 5822 5823 5824 5824 5825 5826 5827 5828 5830 5832 5833 5835 5837 5839 5841 5843 5846 5848 5850 5852 5854 5856 5858 5860 5862 5864 5866
5830 5830 5830 5830 5830 5829 5828 5827 5826 5825 5823 5821 5820 5818 5817 5815 5814 5814 5815 5816 5817 5818 5819 5820 5822 5824 5826 5827 5829 5831 5833 5835 5837 5840 5842 5844 5846 5848 5850 5852 5854 5857 5859
5824 5825 5825 5825 5825 5824 5824 5822 5821 5819 5817 5815 5813 5811 5810 5808 5806 5806 5806 5807 5809 5810 5811 5812 5814 5815 5817 5819 5821 5823 5825 5827 5829 5831 5833 5836 5838 5840 5842 5844 5846 5848 5851
5819 5820 5820 5820 5820 5819 5818 5817 5816 5814 5812 5809 5806 5804 5802 5801 5798 5798 5797 5798 5799 5801 5803 5804 5806 5808 5809 5810 5812 5815 5817 5819 5821 5823 5825 5827 5829 5831 5834 5836 5838 5840 5842
5814 5814 5814 5814 5814 5814 5813 5811 5810 5808 5807 5804 5801 5798 5795 5793 5791 5790 5789 5789 5790 5792 5794 5796 5798 5800 5802 5803 5804 5807 5809 5811 5812 5814 5816 5818 5821 5823 5825 5827 5829 5831 5833
5808 5808 5808 5808 5807 5807 5806 5805 5804 5802 5800 5798 5796 5792 5789 5786 5783 5782 5782 5781 5781 5783 5785 5788 5790 5791 5794 5796 5798 5799 5801 5802 5804 5806 5808 5810 5812 5815 5817 5819 5820 5822 5824
5800 5801 5801 5801 5800 5800 5799 5798 5797 5796 5794 5792 5789 5786 5783 5780 5777 5774 5774 5773 5773 5774 5776 5780 5781 5783 5786 5788 5790 5791 5793 5795 5797 5798 5800 5802 5804 5806 5808 5810 5812 5813 5815
5791 5792 5793 5793 5793 5792 5792 5791 5790 5789 5788 5786 5783 5781 5777 5774 5771 5768 5766 5766 5765 5766 5768 5771 5773 5775 5778 5781 5783 5784 5786 5788 5789 5791 5792 5794 5795 5797 5799 5801 5803 5804 5806
5782 5783 5784 5784 5784 5784 5784 5783 5783 5782 5781 5779 5777 5774 5771 5768 5765 5762 5760 5759 5758 5759 5760 5763 5765 5767 5771 5773 5775 5777 5779 5781 5782 5784 5785 5786 5787 5789 5791 5792 5794 5796 5798
5772 5773 5773 5774 5775 5775 5775 5775 5775 5774 5774 5772 5771 5768 5765 5762 5759 5756 5754 5752 5752 5752 5753 5755 5758 5760 5763 5766 5768 5770 5772 5773 5775 5776 5777 5778 5779 5781 5783 5785 5786 5788 5789
5761 5761 5762 5763 5764 5765 5765 5765 5766 5766 5766 5765 5764 5762 5759 5756 5754 5751 5748 5746 5745 5746 5746 5749 5751 5753 5755 5758 5760 5762 5764 5766 5767 5768 5769 5770 5772 5773 5775 5777 5779 5780 5782
5746 5748 5749 5750 5751 5753 5754 5755 5755 5756 5757 5757 5756 5755 5753 5750 5748 5745 5743 5741 5739 5739 5739 5741 5743 5745 5748 5750 5752 5755 5756 5758 5759 5761 5762 5763 5764 5766 5768 5770 5772 5773 5774
5729 5731 5734 5736 5738 5740 5742 5743 5744 5746 5747 5748 5748 5747 5746 5744 5742 5739 5737 5735 5734 5733 5733 5734 5736 5738 5740 5743 5745 5747 5749 5750 5752 5753 5755 5756 5758 5760 5761 5763 5765 5766 5768
5709 5712 5716 5720 5723 5726 5728 5730 5732 5734 5736 5737 5738 5739 5738 5737 5735 5733 5731 5729 5728 5727 5727 5728 5729 5731 5733 5735 5737 5739 5741 5743 5745 5746 5748 5750 5752 5754 5755 5757 5758 5760 5761
5689 5692 5696 5700 5705 5710 5713 5716 5718 5721 5724 5726 5728 5729 5730 5729 5728 5726 5725 5723 5722 5722 5722 5722 5723 5725 5727 5729 5730 5732 5734 5736 5738 5740 5742 5744 5746 5748 5749 5751 5752 5753 5755
5667 5670 5675 5680 5685 5691 5696 5700 5704 5707 5711 5714 5717 5719 5721 5721 5720 5719 5718 5717 5716 5716 5716 5716 5717 5719 5721 5723 5724 5726 5728 5730 5732 5734 5736 5738 5740 5742 5743 5745 5746 5747 5749
5642 5647 5652 5658 5664 5671 5677 5683 5688 5693 5697 5701 5705 5708 5710 5712 5712 5712 5711 5710 5710 5710 5710 5711 5712 5713 5715 5717 5718 5720 5722 5724 5726 5728 5730 5733 5735 5736 5738 5739 5741 5743 5744
5616 5622 5628 5634 5642 5650 5657 5664 5671 5677 5682 5688 5692 5696 5700 5702 5703 5704 5704 5704 5704 5704 5705 5706 5707 5708 5710 5711 5713 5714 5717 5718 5720 5723 5725 5727 5729 5732 5734 5735 5737 5739 5741
5593 5597 5602 5609 5618 5627 5636 5646 5653 5660 5667 5673 5679 5684 5688 5692 5694 5696 5696 5697 5697 5698 5698 5699 5701 5702 5704 5706 5708 5710 5711 5713 5715 5717 5720 5722 5725 5727 5730 5732 5734 5736 5737
5576 5578 5581 5587 5595 5604 5614 5625 5635 5643 5651 5658 5665 5672 5677 5681 5684 5687 5689 5690 5691 5692 5692 5694 5695 5697 5699 5701 5703 5705 5706 5708 5710 5712 5715 5718 5721 5724 5727 5729 5730 5732 5733
5563 5564 5566 5569 5575 5583 5592 5604 5615 5627 5636 5645 5652 5659 5665 5670 5674 5678 5680 5682 5684 5685 5687 5688 5690 5692 5693 5695 5698 5700 5702 5704 5706 5709 5712 5716 5719 5721 5723 5725 5727 5728 5729